Погода в Белове

Россия / Костромская область     58°45′37″N   42°31′20″E
темп.,
°C
ветер,
м/с
пор.,
м/с
влажн.,
%
обл.,
%
осадки,
мм/ч
давл.,
гПа
погр.,
м
20 апреля, вт
вт2000:00−1в311835 0.0 1032273
03:00−2в310835 0.0 1032241
06:00−1в310762 0.0 1032254
09:00+4вюв59410 0.0 1031838
12:00+7вюв57340 0.0 10291349
15:00+8вюв58350 0.0 10271528
18:00+7вюв49494 0.0 10261128
21:00+3в4147090 0.0 1025474
21 апреля, ср
ср2100:00+2вюв41469100 0.0 1023519
03:00+1в51565100 0.0 1020587
06:00+2вюв61660100 0.0 1016805
09:000вюв71795100 2.1 1014874
12:00+1вюв71792100 0.7 1011860
15:00+2юв71691100 0.7 1009995
18:00+3юв71693100 0.1 10081027
21:00+3ююв61396100 0.8 10081061
22 апреля, чт
чт2200:00+2ююз3996100 0.8 1010624
03:00+2ююз41091100 0.8 1011692
06:00+2ююз4994100 0.0 1013639
09:00+4ююз4991100 0.0 1015645
12:00+7ююз4672100 0.1 10161055
15:00+6ю4782100 0.3 1016790
18:00+7ю37825 0.1 1017659
21:00+3ю39955 0.1 1018220
23 апреля, пт
пт2300:00+2ю310955 0.0 1019215
03:00+1ююв28945 0.0 1019161
06:00+3ююв3109212 0.0 1020259
09:00+8ююв5107610 0.0 1019503
12:00+12ююв586817 0.0 1019920
15:00+13ююв476996 0.0 10181230
18:00+12ююв4107325 0.0 1018680
21:00+9юв4138982 0.0 1018382
24 апреля, сб
сб2400:00+7юв3109688 0.1 1017245
03:00+6юв399724 0.1 1017233
06:00+7юв4119480 0.3 1016389
09:00+11юв5107647 0.5 1015764
12:00+12юв6972100 0.0 1014842
15:00+14юв585985 0.6 10111790
18:00+11вюв6107246 1.2 1010980
21:00+8вюв514779 1.3 1009653